Date String (YYYY-MM-DD hh:mm:ss) UTC,Instrument flags,absolute air pressure of the measurement (hPa),sample flow rate (lpm),inlet stack bypass flow (lpm),air temperature of the measurement (°C),ambient temperature measured by the external sensor (°C),aerosol sample conditioner tube jacket temperature (°C),OPC LED temperature (°C),internal box temperature (°C),relative humidity of the measurement (%),span deviation,mass concentration of particles derived from Lorenz-Mie calculation of OPC scattering (μg/m³),mass concentration of particles derived from Lorenz-Mie calculation of OPC scattering (μg/m³),mass concentration of particles derived from Lorenz-Mie calculation of OPC scattering (μg/m³)
DateTimeUTC,F1_M11,P_M11,Q1_M11,Q2_M11,T1_M11,T2_M11,T3_M11,T4_M11,T5_M11,U1_M11,ZSPAN_M11,X2_M11,X0_M11,X1_M11
2023-08-17 05:00:00,SystemResetWarning,0832.6,4.99,000.00,027.8,026.5,000.0,036.1,029.6,23.5,0000.0,0003.89,0006.22,0003.56
2023-08-17 05:01:00,SystemResetWarning,0832.6,5.00,000.00,027.8,026.7,000.0,036.2,029.7,23.4,0000.0,0003.88,0006.23,0003.56
2023-08-17 05:02:00,SystemResetWarning,0832.6,4.99,000.00,027.9,026.5,000.0,036.2,029.7,23.4,0000.0,0003.88,0006.25,0003.57
2023-08-17 05:03:00,SystemResetWarning,0832.6,5.00,000.00,027.9,024.9,000.0,036.1,029.4,23.4,0000.0,0003.89,0006.19,0003.57
2023-08-17 05:04:00,SystemResetWarning,0832.6,5.01,000.00,027.8,023.6,000.0,036.0,029.1,23.5,0000.0,0003.89,0006.54,0003.58
2023-08-17 05:05:00,SystemResetWarning,0832.6,5.01,000.00,027.7,023.7,000.0,035.9,029.0,23.6,0000.0,0003.92,0006.77,0003.58
2023-08-17 05:06:00,SystemResetWarning,0832.7,5.00,000.00,027.6,024.0,000.0,036.0,028.9,24.1,0000.0,0003.95,0006.96,0003.59
2023-08-17 05:07:00,SystemResetWarning,0832.8,4.99,000.00,027.6,024.5,000.0,036.0,029.1,24.4,0000.0,0003.95,0007.01,0003.60
2023-08-17 05:08:00,SystemResetWarning,0832.8,5.00,000.00,027.6,024.9,000.0,036.0,029.2,24.7,0000.0,0003.95,0006.99,0003.60
2023-08-17 05:09:00,SystemResetWarning,0833.0,4.99,000.00,027.6,025.3,000.0,036.0,029.3,24.3,0000.0,0003.96,0007.02,0003.60
2023-08-17 05:10:00,SystemResetWarning,0833.4,5.00,000.00,027.7,025.7,000.0,036.1,029.4,24.9,0000.0,0003.97,0006.97,0003.61
2023-08-17 05:11:00,SystemResetWarning,0833.5,5.01,000.00,027.7,026.0,000.0,036.1,029.5,24.9,0000.0,0003.97,0007.13,0003.61
2023-08-17 05:12:00,SystemResetWarning,0833.3,5.00,000.00,027.7,026.2,000.0,036.1,029.6,24.9,0000.0,0004.02,0007.50,0003.62
2023-08-17 05:13:00,SystemResetWarning,0832.9,4.99,000.00,027.8,026.4,000.0,036.1,029.6,25.1,0000.0,0004.06,0007.63,0003.63
2023-08-17 05:14:00,SystemResetWarning,0832.9,4.99,000.00,027.8,026.7,000.0,036.2,029.7,25.2,0000.0,0004.04,0007.83,0003.63
2023-08-17 05:15:00,SystemResetWarning,0833.0,5.00,000.00,027.9,026.8,000.0,036.2,029.8,25.1,0000.0,0004.06,0007.94,0003.64
2023-08-17 05:16:00,SystemResetWarning,0832.9,4.99,000.00,027.9,025.6,000.0,036.1,029.5,25.1,0000.0,0004.03,0007.73,0003.64
2023-08-17 05:17:00,SystemResetWarning,0833.1,5.00,000.00,027.8,023.9,000.0,036.0,029.2,25.3,0000.0,0004.01,0007.77,0003.64
2023-08-17 05:18:00,SystemResetWarning,0833.4,5.00,000.00,027.7,023.6,000.0,036.0,029.1,25.6,0000.0,0003.97,0007.66,0003.62
2023-08-17 05:19:00,SystemResetWarning,0833.4,5.02,000.00,027.6,023.9,000.0,036.0,029.0,25.7,0000.0,0003.98,0007.61,0003.62
2023-08-17 05:20:00,SystemResetWarning,0833.3,5.00,000.00,027.6,024.3,000.0,036.0,029.1,25.8,0000.0,0003.97,0007.55,0003.63
2023-08-17 05:21:00,SystemResetWarning,0833.5,5.00,000.00,027.6,024.8,000.0,036.0,029.2,25.8,0000.0,0003.96,0007.55,0003.62
2023-08-17 05:22:00,SystemResetWarning,0833.4,5.00,000.00,027.6,025.2,000.0,036.0,029.3,25.7,0000.0,0003.94,0007.47,0003.61
2023-08-17 05:23:00,SystemResetWarning,0833.3,5.00,000.00,027.7,025.6,000.0,036.1,029.4,25.6,0000.0,0003.92,0007.23,0003.61
2023-08-17 05:24:00,SystemResetWarning,0832.9,5.00,000.00,027.7,025.9,000.0,036.1,029.5,25.6,0000.0,0003.89,0006.90,0003.59
2023-08-17 05:25:00,SystemResetWarning,0832.9,5.00,000.00,027.7,026.2,000.0,036.1,029.5,25.6,0000.0,0003.87,0007.19,0003.59
2023-08-17 05:26:00,SystemResetWarning,0833.0,5.00,000.00,027.8,026.4,000.0,036.1,029.6,25.5,0000.0,0003.86,0006.93,0003.58
2023-08-17 05:27:00,SystemResetWarning,0833.2,5.00,000.00,027.8,026.6,000.0,036.2,029.7,25.5,0000.0,0003.86,0007.53,0003.57
2023-08-17 05:28:00,SystemResetWarning,0833.0,4.99,000.00,027.9,026.8,000.0,036.2,029.8,25.6,0000.0,0003.86,0007.97,0003.56
2023-08-17 05:29:00,SystemResetWarning,0833.0,4.99,000.00,028.0,026.8,000.0,036.2,029.8,25.6,0000.0,0003.90,0008.02,0003.57
2023-08-17 05:30:00,SystemResetWarning,0833.0,5.00,000.00,027.9,025.4,000.0,036.1,029.6,25.6,0000.0,0003.90,0008.06,0003.57
2023-08-17 05:31:00,SystemResetWarning,0833.1,5.00,000.00,027.9,023.8,000.0,036.1,029.3,25.7,0000.0,0003.89,0008.06,0003.56
2023-08-17 05:32:00,SystemResetWarning,0833.3,5.01,000.00,027.8,023.7,000.0,036.0,029.1,25.8,0000.0,0003.88,0008.10,0003.55
2023-08-17 05:33:00,SystemResetWarning,0833.2,5.02,000.00,027.7,024.0,000.0,036.0,029.0,26.0,0000.0,0003.88,0008.17,0003.55
2023-08-17 05:34:00,SystemResetWarning,0833.2,5.00,000.00,027.7,024.4,000.0,036.0,029.1,26.2,0000.0,0003.88,0008.75,0003.55
2023-08-17 05:35:00,SystemResetWarning,0833.0,5.00,000.00,027.7,024.9,000.0,036.1,029.2,26.2,0000.0,0003.86,0008.81,0003.55
2023-08-17 05:36:00,SystemResetWarning,0832.9,5.00,000.00,027.7,025.3,000.0,036.1,029.4,26.2,0000.0,0003.88,0008.52,0003.56
2023-08-17 05:37:00,SystemResetWarning,0833.0,5.00,000.00,027.7,025.6,000.0,036.1,029.4,26.2,0000.0,0003.89,0008.29,0003.57
2023-08-17 05:38:00,SystemResetWarning,0833.1,5.01,000.00,027.7,025.9,000.0,036.2,029.5,26.1,0000.0,0003.90,0007.88,0003.57
2023-08-17 05:39:00,SystemResetWarning,0833.1,4.99,000.00,027.8,026.2,000.0,036.2,029.6,26.0,0000.0,0003.93,0007.64,0003.59
2023-08-17 05:40:00,SystemResetWarning,0833.0,4.99,000.00,027.8,026.4,000.0,036.2,029.7,25.8,0000.0,0003.93,0007.83,0003.59
2023-08-17 05:41:00,SystemResetWarning,0833.0,4.99,000.00,027.9,026.6,000.0,036.2,029.7,25.6,0000.0,0003.93,0007.86,0003.60
2023-08-17 05:42:00,SystemResetWarning,0833.2,5.00,000.00,027.9,026.8,000.0,036.3,029.8,25.5,0000.0,0003.93,0008.03,0003.58
2023-08-17 05:43:00,SystemResetWarning,0833.2,5.00,000.00,028.0,026.0,000.0,036.2,029.7,25.3,0000.0,0003.93,0008.04,0003.58
2023-08-17 05:44:00,SystemResetWarning,0833.1,5.00,000.00,027.9,024.7,000.0,036.1,029.4,25.3,0000.0,0003.93,0008.62,0003.58
2023-08-17 05:45:00,SystemResetWarning,0833.0,5.00,000.00,027.9,024.6,000.0,036.1,029.4,25.3,0000.0,0003.93,0008.25,0003.58
2023-08-17 05:46:00,SystemResetWarning,0833.2,5.00,000.00,027.8,024.9,000.0,036.1,029.3,25.4,0000.0,0003.95,0008.09,0003.57
2023-08-17 05:47:00,SystemResetWarning,0833.5,5.01,000.00,027.8,025.2,000.0,036.2,029.4,25.5,0000.0,0003.93,0008.14,0003.57
2023-08-17 05:48:00,SystemResetWarning,0833.1,5.00,000.00,027.8,025.6,000.0,036.2,029.5,25.4,0000.0,0003.95,0008.49,0003.57
2023-08-17 05:49:00,SystemResetWarning,0833.1,5.00,000.00,027.8,025.9,000.0,036.2,029.6,25.3,0000.0,0003.96,0008.48,0003.57
2023-08-17 05:50:00,SystemResetWarning,0833.2,5.00,000.00,027.9,026.2,000.0,036.3,029.7,25.4,0000.0,0003.98,0008.56,0003.57
2023-08-17 05:51:00,SystemResetWarning,0833.2,5.01,000.00,027.9,026.4,000.0,036.3,029.7,25.2,0000.0,0004.00,0008.39,0003.58
2023-08-17 05:52:00,SystemResetWarning,0833.2,4.99,000.00,028.0,026.6,000.0,036.3,029.8,25.2,0000.0,0004.01,0008.38,0003.59
2023-08-17 05:53:00,SystemResetWarning,0833.2,4.99,000.00,028.0,026.7,000.0,036.3,029.9,25.1,0000.0,0004.05,0008.27,0003.60
2023-08-17 05:54:00,SystemResetWarning,0833.2,5.00,000.00,028.0,025.4,000.0,036.3,029.6,25.0,0000.0,0004.06,0008.33,0003.62
2023-08-17 05:55:00,SystemResetWarning,0833.3,5.00,000.00,027.9,023.8,000.0,036.2,029.4,25.0,0000.0,0004.07,0007.88,0003.63
2023-08-17 05:56:00,SystemResetWarning,0833.3,5.00,000.00,027.9,023.6,000.0,036.1,029.2,25.1,0000.0,0004.11,0007.76,0003.63
2023-08-17 05:57:00,SystemResetWarning,0833.3,5.01,000.00,027.8,024.0,000.0,036.1,029.1,25.2,0000.0,0004.12,0007.77,0003.65
2023-08-17 05:58:00,SystemResetWarning,0833.4,5.00,000.00,027.7,024.4,000.0,036.1,029.2,25.3,0000.0,0004.15,0007.76,0003.65
2023-08-17 05:59:00,SystemResetWarning,0833.4,5.00,000.00,027.7,024.9,000.0,036.2,029.3,25.4,0000.0,0004.13,0007.84,0003.66
